FALCON 9 DEB (46594 NORAD) Tracking and Keplerian Element Data

This shows tracking and keplerian element data for the satellite.

Feedback or suggestion? Click here.




ElementValue
Catalog46594
NameFALCON 9 DEB
Epoch Orbit536
Epoch Day308.87666344
Epoch Year2020
RAAN295.4926
Inclination52.975
Eccentricity7.08E-05
Argument of Perigee245.2341
Mean Anonmoly114.8632
Mean Motion16.44066995
Decay Rate0.08232523
L11 46594U 20070BQ 20308.87666344 .08232523 12474-4 33795-3 0 9991
L22 46594 52.9750 295.4926 0000708 245.2341 114.8632 16.44066995 5360

Live tracking and technical data element details for FALCON 9 DEB (NORAD 46594). FALCON 9 DEB can be tracked NOW for your location showing map with azimuth and elevation plus other details from your city location.

Track the satellite on the map from your city or location and see movement details for azimuth, elevation, latitude, longitude, range, height, and movement on the map or in text.







IsCatalogInMostPopularTable: catalog: 46594, numindb: 16
Update: records affected: 1



GetName: 46594 FALCON 9 DEB

Hit Count: updated at: Thu, 26 Nov 2020 23:08:44 GMT